User: anonymous   Login
Location: Glencliff
(36.1226°N, 86.7183°W)
Time: 22:30:45
(UTC+00:00)
Language:

Unknown - Orbit

View from above orbital plane
View from above orbital plane
View from above satellite
View from above satellite

Ground track
Ground track

The orbit data is extracted from the following two-line orbital elements,

1 44268U 19029AK  19289.47839155  .00001031  00000-0  90138-4 0  9996
2 44268  52.9982 239.2358 0001618  91.7069 268.4104 15.05486831 22012
Epoch (UTC): 16 October 2019 11:28:53
Eccentricity: 0.0001618
inclination: 52.9982°
perigee height: 549 km
apogee height: 551 km
right ascension of ascending node: 239.2358°
argument of perigee: 91.7069°
revolutions per day: 15.05486831
mean anomaly at epoch: 268.4104°
orbit number at epoch: 2201

The dashed part of the orbit path shows where the satellite is in the earth's shadow,  

DLR